Flag for Austria Weather past 2 weeks in Graz, Styria, Austria

Now
52 °F

Passing clouds.


Feels Like: 51 °F
Forecast: 30 / 61 °F
Wind: 5 mph from Southeast

Location: Graz-Thalerhof-Flughafen

Current Time: Apr 19, 2015 at 2:37:36 PM

Latest Report: Apr 19, 2015 at 1:50 PM


Visibility: N/A

Pressure: 30.15 "Hg

Humidity: 38%

Dew point: 27 °F

Location of GrazLocation

Historic Weather in Graz — Graph

°F

Graz temperature yesterday

Maximum temperature yesterday: 54 °F (at 12:20 AM)
Minimum temperature yesterday: 41 °F (at 8:50 PM)
Average temperature yesterday: 47 °F

Past Weeks' High & Low Weather Summary

 TemperatureHumidityPressure
High81 °F (Apr 16, 3:50 PM)100% (Apr 10, 5:20 AM)30.45 "Hg (Apr 10, 5:20 AM)
Low25 °F (Apr 6, 4:50 AM)17% (Apr 16, 3:20 PM)29.77 "Hg (Apr 17, 2:50 PM)
Average50 °F61%30.18 "Hg
* Reported Apr 4 1:20 PM — Apr 19 1:20 PM, Graz, Weather by CustomWeather, © 2015

Note: Actual official high and low records may vary slightly from our data, if they occured in-between our weather recording intervals... More about our weather records

Advertising

Graz weather history for previous 24 hours

 ConditionsComfort  
Time TempWeatherWind HumidityBarometerVisibility
1:20 PM
Sun, Apr 19
50 °FPassing clouds.6 mph43%30.15 "HgN/A
12:50 PM50 °FPassing clouds.2 mph43%30.18 "HgN/A
12:20 PM48 °FPassing clouds.3 mph46%30.18 "HgN/A
11:50 AM48 °FPassing clouds.5 mph43%30.18 "HgN/A
11:20 AM48 °FPassing clouds.7 mph40%30.18 "HgN/A
10:50 AM48 °FPassing clouds.2 mph46%30.18 "HgN/A
10:20 AM46 °FPassing clouds.3 mph50%30.21 "HgN/A
9:50 AM46 °FPassing clouds.2 mph62%30.21 "HgN/A
9:20 AM45 °FPassing clouds.3 mph57%30.21 "HgN/A
8:50 AM43 °FPassing clouds.1 mph66%30.21 "HgN/A
8:20 AM41 °FPassing clouds.1 mph70%30.21 "HgN/A
7:50 AM39 °FPassing clouds.1 mph75%30.21 "HgN/A
7:20 AM36 °FPassing clouds.1 mph87%30.21 "HgN/A
6:50 AM34 °FPassing clouds.1 mph93%30.21 "HgN/A
6:20 AM32 °FFog.2 mph100%30.21 "HgN/A
5:50 AM32 °FPassing clouds.1 mph93%30.21 "HgN/A
5:20 AM34 °FChilly.1 mph93%30.18 "HgN/A
4:50 AM34 °FChilly.1 mph93%30.18 "HgN/A
4:20 AM34 °FPassing clouds.2 mph93%30.18 "HgN/A
3:50 AM36 °FPassing clouds.1 mph87%30.21 "HgN/A
3:20 AM36 °FPassing clouds.No wind87%30.21 "HgN/A
2:50 AM36 °FPassing clouds.1 mph87%30.21 "HgN/A
2:20 AM39 °FPassing clouds.3 mph75%30.21 "HgN/A
1:50 AM39 °FPassing clouds.3 mph75%30.21 "HgN/A
1:20 AM39 °FPassing clouds.2 mph75%30.21 "HgN/A
12:50 AM39 °FPassing clouds.2 mph75%30.21 "HgN/A
12:20 AM39 °FPassing clouds.1 mph81%30.21 "HgN/A
11:50 PM
Sat, Apr 18
43 °FPassing clouds.2 mph66%30.21 "HgN/A
11:20 PM41 °FPartly cloudy.1 mph70%30.21 "HgN/A
10:50 PM43 °FPassing clouds.3 mph61%30.21 "HgN/A
10:20 PM41 °FPassing clouds.2 mph66%30.21 "HgN/A
9:50 PM43 °FPassing clouds.3 mph57%30.18 "HgN/A
9:20 PM43 °FPassing clouds.3 mph57%30.18 "HgN/A
8:50 PM41 °FPassing clouds.5 mph57%30.18 "HgN/A
8:20 PM45 °FPassing clouds.8 mph53%30.15 "HgN/A
7:50 PM46 °FPassing clouds.15 mph46%30.15 "HgN/A
7:20 PM45 °FPassing clouds.12 mph53%30.12 "HgN/A
6:50 PM48 °FPassing clouds.13 mph43%30.12 "HgN/A
6:20 PM50 °FScattered clouds.12 mph43%30.12 "HgN/A
5:50 PM50 °FBroken clouds.12 mph40%30.12 "HgN/A
5:20 PM52 °FBroken clouds.12 mph38%30.12 "HgN/A
4:50 PM52 °FPartly sunny.16 mph41%30.12 "HgN/A
4:20 PM52 °FPartly sunny.15 mph41%30.09 "HgN/A
3:50 PM54 °FBroken clouds.10 mph35%30.09 "HgN/A
3:20 PM52 °FBroken clouds.10 mph41%30.09 "HgN/A
2:50 PM52 °FBroken clouds.16 mph44%30.09 "HgN/A
2:20 PM50 °FBroken clouds.5 mph58%30.09 "HgN/A
Weather by CustomWeather, © 2015

See weather overviewHow to use our weather pages